Location: Athens-Covington-Pier
(33.9360°N, 83.4200°W)
Time: 20:09:28
(UTC-04:00)

ISS - Visible Passes

Search period start: 20 March 2019 00:00
Search period end: 30 March 2019 00:00
Orbit: 406 x 411 km, 51.6° (Epoch: 21 March)

Date Brightness Start Highest point End Pass type
(mag) Time Alt. Az. Time Alt. Az. Time Alt. Az.
20 Mar -3.9 20:50:28 10° SW 20:53:42 63° SE 20:55:13 28° ENE visible
21 Mar -1.6 21:36:40 10° W 21:39:21 23° NW 21:40:04 21° NNW visible
22 Mar -2.5 20:45:04 10° WSW 20:48:12 41° NW 20:51:21 10° NNE visible
23 Mar -0.7 21:33:00 10° NW 21:34:08 11° NNW 21:35:16 10° N visible
24 Mar -1.1 20:40:30 10° WNW 20:42:50 18° NNW 20:45:10 10° NNE visible
